Dewpoint
51 51 54 52 50 51 51 49 49 50 51 50 48 47 48 49 51 47 44 46 49 54 55 52 50 52 53 54 56 53 45 39 39 38 37 37 37 34 38 41 44 49 51 54 62
51 50 52 50 49 49 49 48 47 47 47 47 48 49 49 49 45 40 45 51 52 53 48 50 48 50 50 50 53 50 44 41 41 41 39 38 36 33 36 39 42 47 53 60 61
52 51 50 50 50 50 48 48 46 46 47 47 47 47 47 46 36 37 54 53 54 50 46 48 50 50 47 49 48 48 43 43 42 41 41 39 37 37 36 37 41 44 53 59 60
50 48 49 49 49 48 47 46 46 47 47 47 47 47 46 44 29 34 49 50 49 42 41 42 49 46 43 45 47 44 45 45 44 45 42 39 42 40 36 37 38 42 56 57 60
47 49 47 48 48 48 46 46 47 47 47 47 47 47 43 37 36 38 47 42 39 39 39 48 47 45 39 43 44 44 44 45 45 44 45 45 43 41 39 40 48 52 56 58 59
47 47 49 49 47 47 47 47 47 47 47 48 47 47 43 35 37 38 38 37 36 35 34 38 46 44 41 41 42 44 44 45 46 44 45 43 42 40 39 53 53 55 56 55 57
49 49 48 47 47 48 48 48 48 48 47 47 48 43 40 35 37 38 37 36 37 37 34 33 38 44 45 43 42 43 42 44 45 46 45 47 44 40 43 53 52 54 55 55 56
46 47 47 48 49 48 48 48 47 46 46 46 46 44 37 40 40 39 39 38 39 38 37 37 39 41 43 45 43 41 43 38 41 45 47 46 39 41 44 51 51 52 53 54 56
50 49 48 48 48 48 47 47 46 45 43 41 42 41 34 39 39 39 39 37 38 37 39 39 42 40 45 41 38 40 32 36 38 43 45 45 40 41 42 49 50 51 52 53 54
47 47 48 48 48 48 47 46 44 41 36 35 40 34 31 30 35 37 39 39 38 38 36 34 39 38 40 38 28 31 34 36 35 43 43 43 41 40 41 46 49 51 52 53 53
47 47 48 48 47 47 43 37 31 28 35 31 29 31 31 33 34 33 36 38 35 36 31 33 30 32 35 36 34 30 34 33 36 41 41 42 41 39 41 43 46 50 51 51 51
46 47 47 47 47 45 40 36 38 40 32 33 33 33 34 34 33 32 32 31 31 27 32 32 27 30 33 38 35 33 33 34 36 37 41 40 40 40 39 42 43 47 49 51 49
46 46 47 47 46 40 38 37 42 41 31 27 29 30 29 35 30 30 32 32 30 26 26 25 23 27 27 36 36 35 32 34 32 38 39 39 37 39 40 38 41 44 48 49 48
47 47 47 47 37 39 35 41 42 41 17 15 15 28 31 33 29 32 30 29 29 26 26 27 27 27 28 33 34 31 34 34 35 34 32 37 29 38 38 38 37 40 44 48 48
47 47 46 46 39 36 38 42 40 31 -8 8 17 28 22 22 24 31 35 31 30 28 28 20 30 28 29 29 34 32 32 33 34 35 34 32 32 28 38 37 38 37 39 45 47
47 46 46 41 38 39 42 36 29 8 -12 16 21 21 22 24 27 33 37 36 36 32 32 30 32 31 28 34 29 33 33 33 35 34 28 32 32 27 32 37 38 39 37 41 46
46 46 43 43 34 39 35 26 10 2 13 15 19 22 23 24 24 31 28 31 26 16 14 28 27 29 34 33 35 34 31 26 24 25 24 28 31 31 28 34 37 37 38 37 43
46 44 40 40 38 37 28 18 -1 10 14 19 23 23 23 24 25 29 29 27 31 29 25 21 16 27 34 32 31 32 30 25 19 19 24 30 30 29 28 26 32 35 37 37 40
44 37 37 36 38 33 23 8 7 15 21 23 23 21 20 22 25 28 26 27 28 31 24 21 22 27 33 34 32 33 30 32 27 26 25 26 27 23 24 25 25 25 35 37 37
35 32 32 35 36 28 18 13 17 18 23 27 20 22 20 22 20 24 26 31 32 34 35 29 19 29 30 34 35 34 34 29 30 22 21 23 18 20 20 23 24 26 26 33 37
30 24 31 33 31 25 11 12 21 23 26 26 23 24 22 23 23 24 26 28 33 33 35 32 29 28 31 28 27 32 31 32 30 26 20 18 19 21 16 15 16 16 21 23 27
28 17 29 30 21 9 12 22 25 25 26 26 28 27 26 21 21 20 23 27 30 34 31 34 29 24 27 28 32 33 31 32 26 25 22 18 13 16 17 18 18 18 18 18 20
23 24 29 28 13 13 22 24 25 25 24 26 25 30 26 23 20 22 25 28 29 29 31 34 28 22 24 27 29 32 32 32 31 29 26 18 14 16 19 20 22 24 25 29 28
22 17 22 23 27 23 22 20 22 24 24 24 25 26 20 22 25 23 24 26 24 27 36 35 29 24 15 17 25 22 31 31 29 27 25 18 14 16 17 18 20 26 29 31 32
23 17 27 12 14 23 20 21 20 18 22 24 24 22 19 16 19 19 22 22 23 30 29 32 25 27 25 23 24 24 25 28 26 22 21 17 16 17 18 19 21 28 30 30 29
19 21 24 24 23 15 14 10 20 19 22 18 22 20 20 22 22 23 23 22 23 27 28 31 26 26 25 22 26 26 27 26 25 21 20 18 19 21 18 19 21 28 29 29 29
29 30 29 18 19 8 10 13 20 20 19 23 22 21 21 23 24 23 24 27 29 27 27 29 25 22 21 21 25 24 26 27 26 22 23 21 21 19 18 19 20 25 29 30 30
Lifted_Index
13 12 11 11 11 10 10 10 9 8 7 7 7 8 7 7 7 7 6 5 3 2 1 1 1 1 -1 -1 -1 -1 0 1 2 2 2 2 2 3 3 4 5 4 3 1 -0
13 12 12 11 11 10 10 10 9 9 8 7 7 7 7 7 7 7 5 4 3 2 2 1 1 0 -1 -1 -1 -1 0 1 1 1 1 1 2 2 3 4 5 4 3 1 -1
13 13 12 12 11 11 10 10 9 9 8 8 7 7 7 7 7 6 4 3 3 2 2 2 1 0 -0 -1 -1 -0 0 1 1 1 0 1 1 1 2 3 4 4 2 0 -1
14 13 13 12 11 11 10 10 9 8 7 7 7 7 7 7 6 5 4 4 4 3 2 2 1 0 -0 -0 -0 0 0 0 0 0 -0 0 0 1 1 2 3 3 1 -1 -1
14 14 13 12 11 11 10 10 8 7 7 7 7 6 6 7 6 6 6 6 5 4 2 1 0 0 0 -0 -0 -0 -0 -0 -0 -0 -0 -0 0 0 1 2 2 1 0 -1 -1
14 13 13 12 12 11 10 8 7 7 7 6 6 6 6 7 7 7 7 7 7 5 3 1 0 0 0 0 -0 -0 -0 -0 -0 -0 -1 -1 -0 0 1 1 1 -0 -1 -1 -1
14 13 12 12 11 10 9 8 7 7 6 6 6 6 6 7 7 8 8 8 7 6 4 3 2 1 0 -0 -0 -0 -0 -0 -0 -0 -0 -0 -0 0 1 0 -0 -1 -1 -1 -1
13 13 12 11 10 9 8 7 7 7 7 6 6 6 7 7 8 8 8 8 7 7 6 5 3 2 1 0 -0 -0 0 0 0 0 -0 -0 0 1 0 -0 -1 -1 -2 -2 -2
13 12 12 11 10 9 8 7 7 7 7 7 7 7 8 8 8 8 8 7 7 7 7 6 4 2 1 0 0 0 1 1 1 0 0 0 1 1 1 0 -0 -1 -2 -2 -2
13 12 12 11 10 9 8 8 8 8 8 8 8 8 8 8 8 8 8 8 7 7 7 6 4 2 1 1 1 1 1 1 1 0 0 0 1 1 1 1 -0 -1 -2 -2 -2
13 12 11 11 10 9 9 9 9 9 9 9 8 8 8 7 8 8 8 7 7 7 7 6 4 2 2 1 1 1 1 1 1 0 0 0 1 1 1 1 0 -0 -1 -2 -2
13 12 11 11 10 9 9 9 9 9 9 9 8 7 6 6 6 6 6 6 7 7 7 6 5 3 2 1 1 1 1 1 1 0 0 0 1 1 1 1 1 0 -0 -1 -1
13 12 11 11 10 9 9 9 8 8 8 8 7 6 5 4 4 3 4 4 5 6 7 7 6 4 3 2 1 1 1 1 1 1 1 1 1 1 1 1 1 1 0 0 -0
12 12 11 10 10 9 9 8 8 8 7 7 7 5 4 3 2 2 2 2 3 4 5 6 6 5 4 3 2 2 2 1 1 1 1 1 1 1 1 1 1 1 1 1 1
12 12 11 10 9 9 9 8 8 7 6 6 6 4 3 2 2 1 1 1 2 2 3 5 5 5 5 4 3 3 2 1 1 1 1 1 1 1 1 1 2 1 1 1 1
12 11 11 10 9 9 9 9 8 6 5 5 5 3 2 2 2 1 1 1 1 2 2 3 4 4 5 4 4 3 2 1 1 1 1 1 1 2 2 2 2 2 1 1 1
12 11 11 10 9 9 9 8 7 6 6 6 4 3 2 1 1 1 1 1 1 1 1 2 3 3 4 4 4 3 2 1 0 0 1 1 2 2 2 2 2 1 1 1 1
12 12 11 10 9 9 8 7 6 6 6 5 4 2 2 2 1 1 1 1 1 1 1 1 2 3 3 4 4 3 2 1 0 0 1 1 2 2 2 2 2 2 2 2 2
13 12 11 10 9 8 8 7 7 7 6 5 3 2 2 2 2 1 1 1 1 1 1 1 1 2 2 3 3 2 2 2 1 1 1 1 2 2 2 2 2 2 2 2 3
13 12 11 9 9 8 7 7 7 7 6 4 3 2 2 2 2 1 1 1 1 1 1 1 1 1 1 2 2 2 2 2 1 1 0 1 1 1 2 2 2 2 3 3 3
13 12 10 9 8 8 7 7 8 7 6 4 3 2 2 2 2 1 1 2 2 1 1 1 1 1 1 1 1 1 1 1 1 1 0 1 1 2 2 2 2 2 2 3 3
12 11 10 9 8 7 7 8 8 7 6 4 3 2 2 3 2 2 2 2 2 2 1 1 1 1 1 1 1 1 1 1 1 1 1 1 1 2 3 2 2 2 3 3 3
11 10 9 8 8 7 7 8 8 8 6 4 3 2 2 3 2 2 2 3 3 2 1 1 1 1 1 1 1 1 1 1 1 1 1 1 2 3 3 3 3 3 3 3 3
11 10 9 8 8 8 8 8 8 8 7 5 3 2 2 2 2 3 3 3 2 2 1 1 1 1 1 2 2 1 2 2 1 1 1 1 2 3 4 4 4 3 3 3 3
10 10 9 9 8 8 8 8 8 8 7 5 3 3 3 2 2 2 3 3 2 2 2 1 1 1 1 2 2 2 2 2 2 1 1 2 2 3 3 4 4 4 4 4 4
10 10 9 9 8 8 8 8 8 8 7 5 4 3 3 3 2 3 3 3 2 2 2 1 1 1 1 1 1 1 1 1 1 1 1 1 2 2 3 3 4 4 4 4 4
10 10 9 8 8 8 8 8 8 8 7 5 4 3 3 3 3 3 3 3 3 2 1 1 1 1 1 0 0 0 0 1 1 1 0 1 1 2 3 3 4 4 5 5 5